CDT,Max TemperatureF,Mean TemperatureF,Min TemperatureF,Max Dew PointF,MeanDew PointF,Min DewpointF,Max Humidity, Mean Humidity, Min Humidity, Max Sea Level PressureIn, Mean Sea Level PressureIn, Min Sea Level PressureIn, Max VisibilityMiles, Mean VisibilityMiles, Min VisibilityMiles, Max Wind SpeedMPH, Mean Wind SpeedMPH, Max Gust SpeedMPH,PrecipitationIn, CloudCover, Events, WindDirDegrees
2013-10-1,64,54,44,48,38,32,94,60,30,29.87,29.72,29.55,10,10,10,28,15,37,0.00,0,,249
2013-10-2,62,50,39,46,38,32,93,66,32,30.01,29.95,29.88,10,10,10,12,5,22,0.00,2,Rain,243
2013-10-3,55,45,35,41,37,32,100,73,47,30.25,30.09,30.01,10,10,10,21,7,26,0.00,1,,27
2013-10-4,41,39,37,37,33,28,93,78,70,30.35,30.29,30.22,10,10,10,23,17,31,0.00,7,,31
2013-10-5,50,41,32,36,32,28,87,75,54,30.21,30.08,30.00,10,10,2,26,18,34,0.01,5,Rain,19
2013-10-6,68,46,24,39,32,25,100,69,28,30.03,29.94,29.86,10,10,10,21,6,24,0.00,0,,295
2013-10-7,66,50,35,46,40,34,100,68,34,29.94,29.84,29.64,10,10,10,17,7,25,0.00,2,,176
2013-10-8,66,52,37,46,41,36,100,71,32,29.82,29.64,29.56,10,10,9,24,8,29,0.00,0,,267
2013-10-9,64,50,35,41,36,32,93,69,34,30.02,29.97,29.82,10,9,1,9,5,,0.00,0,,288
2013-10-10,68,54,41,50,43,37,93,71,40,30.00,29.82,29.64,10,10,10,18,8,18,0.11,0,Rain,90
2013-10-11,59,54,48,59,54,48,100,98,88,29.67,29.47,29.30,10,8,0,23,9,32,0.66,6,Rain-Thunderstorm,80
2013-10-12,50,42,33,46,37,32,100,77,54,30.17,29.83,29.36,10,10,5,34,25,46,0.08,2,Rain,299
2013-10-13,53,40,28,36,31,28,100,77,41,30.35,30.29,30.17,10,9,1,8,4,,0.74,0,Snow,245
2013-10-14,42,40,37,41,40,36,100,98,87,30.32,30.24,30.18,10,6,2,22,11,29,1.30,7,Rain-Snow,64
2013-10-15,46,40,35,39,36,32,100,88,66,30.21,30.14,30.01,10,10,9,17,12,23,0.00,2,Rain,334
2013-10-16,55,44,32,43,36,30,100,80,58,30.00,29.88,29.81,10,10,10,14,8,17,0.00,1,,275
2013-10-17,46,39,30,37,32,28,93,77,50,30.03,29.97,29.91,10,10,10,20,11,24,0.00,5,Rain,310
2013-10-18,41,34,26,37,32,27,100,93,70,29.96,29.88,29.75,10,10,2,17,8,23,0.11,3,Rain-Snow,276
2013-10-19,41,32,24,36,28,25,100,87,53,29.80,29.74,29.62,10,10,5,12,7,,0.03,2,Rain-Snow,276
2013-10-20,35,32,28,36,28,19,100,83,60,29.99,29.83,29.58,10,9,3,20,13,29,0.10,7,Rain-Snow,7
2013-10-21,32,26,21,27,21,19,93,75,60,30.00,29.97,29.93,10,10,10,14,6,17,0.00,3,,351
2013-10-22,35,32,28,28,26,23,100,82,65,30.10,30.05,29.99,10,10,10,14,4,,0.00,7,,323
2013-10-23,41,34,26,30,28,25,100,84,61,30.20,30.12,30.03,10,10,8,21,7,30,0.00,5,,313
2013-10-24,37,32,26,30,27,25,100,82,60,30.30,30.25,30.18,10,10,10,17,10,20,0.00,5,,287
2013-10-25,57,42,28,39,30,23,93,70,38,30.17,29.93,29.79,10,10,10,34,14,44,0.00,0,,273
2013-10-26,41,34,28,28,25,23,86,67,53,30.21,30.07,29.76,10,10,10,21,13,28,0.00,3,,278
2013-10-27,37,30,23,32,26,16,100,78,69,30.41,30.03,29.74,10,10,10,24,12,34,0.00,4,,16
2013-10-28,28,24,19,19,15,14,93,70,55,30.58,30.50,30.42,10,10,10,18,12,24,0.00,4,,73
2013-10-29,35,29,23,23,19,18,93,71,52,30.45,30.21,30.06,10,10,10,9,6,,0.00,1,,162
2013-10-30,39,32,24,32,29,23,100,86,75,30.05,29.85,29.64,10,10,10,12,6,,0.00,5,,193
2013-10-31,41,32,24,32,29,25,100,92,70,29.63,29.52,29.47,10,9,5,14,7,16,0.00,0,,264